Location: Sternwarte Stuttgart
(48.7824°N, 9.1965°E)
Time: 11:48:40
(UTC+00:00)

ISS - Pass Details

Date: 21 April 2025
Orbit: 416 x 420 km, 51.6° (Epoch: 15 May)

Event Time Altitude Azimuth Distance (km) Brightness Sun altitude
Exits shadow 03:14:59 - 193° (SSW) 1,609 -1.2 -10.6°
Reaches altitude 10° 03:15:22 10° 189° (S) 1,487 -1.4 -10.5°
Maximum altitude 03:17:52 20° 140° (SE) 1,034 -1.7 -10.2°
Drops below altitude 10° 03:20:25 10° 91° (E) 1,506 0.0 -9.8°
Sets 03:22:51 0° 74° (ENE) 2,364 1.9 -9.5°
